Hourly Data Report for October 01, 2017

All times are specified in Local Standard Time (LST). Add 1 hour to adjust for Daylight Saving Time where and when it is observed.

ISLAND LAKE A
MANITOBA

53°51'26.000" N
94°39'13.000" W
235.30 m
5061375
71145
YIV

Download Data

Hourly Data (October 2017)
Hourly Data Report for October 1, 2017
Temp Definition
°C
Dew Point Temp Definition
°C
Rel Hum Definition
%
Wind Dir Definition
10's deg

Wind Spd Definition
km/h
Visibility Definition
km
Stn Press Definition
kPa
Hmdx Definition


Wind Chill Definition


Weather Definition


TIME
00:00 Legend Double Dagger 12.8 8.5 74 14 14 24.1 98.37     Mainly Clear
01:00 Legend Double Dagger 12.8 8.7 76 14 15 24.1 98.35     LegendNANA
02:00 Legend Double Dagger 12.8 8.9 77 14 14 24.1 98.32     LegendNANA
03:00 Legend Double Dagger 12.9 9.0 77 14 16 24.1 98.26     Cloudy
04:00
05:00 Legend Double Dagger 11.8 10.5 92 12 13 19.3 98.23     Rain
06:00 Legend Double Dagger 11.7 10.3 91 12 16 24.1 98.19     Rain
07:00 Legend Double Dagger 12.2 10.8 91 12 17 19.3 98.15     LegendNANA
08:00 Legend Double Dagger 13.0 10.8 86 14 21 24.1 98.15     LegendNANA
09:00 Legend Double Dagger 13.3 10.9 85 13 21 24.1 98.11     Mostly Cloudy
10:00 Legend Double Dagger 14.5 11.1 80 13 22 24.1 98.09     LegendNANA
11:00 Legend Double Dagger 16.3 11.7 74 13 21 24.1 98.07     LegendNANA
12:00 Legend Double Dagger 17.1 11.4 69 12 23 24.1 98.01     Mainly Clear
13:00 Legend Double Dagger 18.4 11.8 65 13 22 24.1 97.93     LegendNANA
14:00 Legend Double Dagger 18.3 11.7 65 13 25 24.1 97.87     LegendNANA
15:00 Legend Double Dagger 18.2 11.8 66 13 30 24.1 97.86     Mostly Cloudy
16:00 Legend Double Dagger 17.8 11.7 67 14 28 24.1 97.85     LegendNANA
17:00 Legend Double Dagger 16.7 11.6 71 14 24 24.1 97.85     LegendNANA
18:00 Legend Double Dagger 15.9 11.7 76 13 19 24.1 97.85     Cloudy
19:00 Legend Double Dagger 15.4 12.3 82 14 18 19.3 97.90     Rain
20:00 Legend Double Dagger 14.0 12.9 93 13 17 12.9 97.89     Rain
21:00 Legend Double Dagger 13.6 12.9 96 12 22 16.1 97.86     Rain
22:00 Legend Double Dagger 13.5 12.9 96 13 23 12.9 97.80     Rain
23:00 Legend Double Dagger 13.4 12.6 95 14 25 19.3 97.78     Rain

Notes on Data Quality.

Legend

  • E = Estimated
  • M = Missing
  • NA = Not Available
  • ‡ = Partner data that is not subject to review by the National Climate Archives
Date modified: